Simultaneous Nadir Overpasses (SNOs) Predictions

Prediction of SNOs between NOAA-20 and AQUA Satellite Orbit:

Table of predicted SNOs for the next 14.0 days since TLE Epoch: 3/1/2025
Index Date (NOAA-20) Time (NOAA-20) Lat,Lon (NOAA-20) SZA (NOAA-20 ) Date (AQUA) Time (AQUA) Lat,Lon (AQUA) SZA (AQUA ) Distance(km) Time Diff (sec)
1 03/01/2025 17:35:44 -81.31, 27.25 85.50 03/01/2025 17:36:26 -81.31, 27.15 85.51 1.75 42
2 03/01/2025 18:26:28 81.31,-164.93 94.42 03/01/2025 18:25:44 81.32,-165.05 94.47 2.07 44
3 03/04/2025 03:57:22 81.31, 51.73 93.59 03/04/2025 03:57:43 81.31, 51.79 93.56 1.20 21
4 03/04/2025 04:48:05 -81.31,-140.33 86.52 03/04/2025 04:47:02 -81.32,-140.35 86.48 0.69 63
5 03/06/2025 14:18:59 -81.31, 76.66 87.42 03/06/2025 14:18:59 -81.32, 76.76 87.43 1.95 0
6 03/08/2025 23:49:53 -81.31, -66.44 88.31 03/08/2025 23:50:54 -81.31, -66.25 88.38 3.17 61
7 03/09/2025 00:40:37 81.31, 101.33 91.62 03/09/2025 00:40:12 81.32, 101.44 91.62 1.96 25
8 03/11/2025 10:11:30 81.31, -41.47 90.67 03/11/2025 10:12:04 81.32, -41.34 90.64 2.41 34
9 03/11/2025 11:02:14 -81.31, 126.12 89.38 03/11/2025 11:01:24 -81.31, 126.15 89.36 0.46 50



Historial Predications of SNOs between NOAA-20 and AQUA
